Regional Weather Roundup
Issued by NWS

Home | Current Version | Previous Version | Graphics & Text | Print | Product List | Glossary On
Versions: 1 2 3 4 5 6 7 8 9 10 11 12 13 14 15 16 17 18 19 20 21 22 23 24 25 26 27 28 29 30 31 32 33 34 35 36 37 38 39 40 41 42 43 44 45 46 47 48 49 50
000
ASUS43 KIND 282209
RWRIN

WEATHER ROUNDUP FOR INDIANA
NATIONAL WEATHER SERVICE INDIANAPOLIS IN
500 PM EST SAT FEB 28 2015

NOTE: "FAIR" INDICATES FEW OR NO CLOUDS BELOW 12,000 FEET WITH NO
SIGNIFICANT WEATHER AND/OR OBSTRUCTIONS TO VISIBILITY.

* - STATION DOES NOT REPORT WEATHER SUCH AS PRECIPITATION OR FOG.

+ - STATION NOT QUALITY CONTROLLED BY THE NATIONAL WEATHER SERVICE.
    USE DATA WITH CAUTION...ESPECIALLY DEWPOINT AND RELATIVE
    HUMIDITY OBSERVATIONS.

INZ001>003-010>013-019-020-282300-
NORTHWEST INDIANA

CITY           SKY/WX    TMP DP  RH WIND       PRES   REMARKS
GARY /AIRPORT/ MOSUNNY   23   0  36 SE8       30.59F WCI  14
KNOX *+          N/A     21  -9  25 SE9       30.58S WCI  11
LA PORTE +     SUNNY     21   5  49 SE5       30.58F WCI  15
MICHIGAN CITY+ SUNNY     23  -4  30 SE7       30.59S WCI  15
MONTICELLO +   CLOUDY    23  10  58 E6        30.56F WCI  15
RENSSELAER +   CLOUDY    25  10  54 SE10      30.57F WCI  15
VALPARAISO     MOSUNNY   19   5  54 E5        30.57F WCI  12

$$

LMZ046-743>745-282300-
SOUTHERN LAKE MICHIGAN

STATION/POSITION TIME  TEMP WIND        PRES
                       AIR  DIR/SP/G
                 (UTC) (F)  (DEG/KT/KT) (MB)
MICHIGAN CITY    2200   20  120/  8/ 11   N/A

$$

INZ004-005-014>016-021>024-282300-
NORTH CENTRAL INDIANA

CITY           SKY/WX    TMP DP  RH WIND       PRES   REMARKS
ELKHART        SUNNY     21   0  39 SE7       30.59F WCI  13
GOSHEN         SUNNY     20   3  48 SE8       30.58F WCI  10
LOGANSPORT +   PTSUNNY   23  10  58 E10       30.58F WCI  12
PERU/GRISSOM   MOSUNNY   22   8  52 SE10      30.55F WCI  12
ROCHESTER +    SUNNY     25   9  50 E10       30.58S WCI  15
SOUTH BEND     SUNNY     20   3  48 SE9       30.59F WCI   9
WARSAW +       SUNNY     21   3  45 SE6       30.58F WCI  14

$$

INZ006>009-017-018-025>027-282300-
NORTHEAST INDIANA

CITY           SKY/WX    TMP DP  RH WIND       PRES   REMARKS
ANGOLA *+      SUNNY     18   1  49 SE7       30.58F WCI   8
AUBURN +       SUNNY     21   3  45 E8        30.60F WCI  12
FORT WAYNE     PTSUNNY   19   4  51 E10       30.60F WCI   7
HUNTINGTON +   SUNNY     21   2  43 E9        30.58F WCI  10

$$

INZ028-029-035-036-043>045-051>053-282300-
WEST CENTRAL INDIANA

CITY           SKY/WX    TMP DP  RH WIND       PRES   REMARKS
CRAWFORDSVL +  CLOUDY    23   2  39 SE8       30.54S WCI  14
GREENCASTLE +  CLOUDY    27   5  39 E9        30.54S WCI  17
LAFAYETTE      CLOUDY    24  10  55 E13       30.56F WCI  12
TERRE HAUTE    CLOUDY    28   7  41 E6        30.54S WCI  22

$$

INZ030>032-037>040-046>048-054>057-064-065-282300-
CENTRAL INDIANA

CITY           SKY/WX    TMP DP  RH WIND       PRES   REMARKS
CP ATTERBURY + PTSUNNY   28   9  43 E9        30.56F WCI  20
FRANKFORT +    CLOUDY    23   9  55 E12       30.56F WCI  12
GREENWOOD *+   CLOUDY    25   5  42 E6        30.56F WCI  18
INDIANAPOLIS   CLOUDY    24   6  46 E9        30.54S WCI  14
-EAGLE CREEK   CLOUDY    24   5  44 SE8       30.55S WCI  15
KOKOMO *+      PTSUNNY   21   9  58 E12       30.56F WCI   9
MARION +       MOSUNNY   22   5  49 E8        30.58F WCI  12
MT COMFORT *+  MOSUNNY   23   0  36 E9        30.55F WCI  13
SHELBYVILLE    CLOUDY    26   9  48 E8        30.55F WCI  18
ZIONSVILLE +   PTSUNNY   25   6  46 E9        30.55F WCI  15

$$

INZ033-034-041-042-049-050-058-059-282300-
EAST CENTRAL INDIANA

CITY           SKY/WX    TMP DP  RH WIND       PRES   REMARKS
MUNCIE         SUNNY     21   7  54 E13       30.56F WCI   9

$$

INZ060-061-067>069-081>083-085>088-282300-
SOUTHWEST INDIANA

CITY           SKY/WX    TMP DP  RH WIND       PRES   REMARKS
EVANSVILLE     CLOUDY    35  16  45 E5        30.51F WCI  31
HUNTINGBURG *+ CLOUDY    34  16  47 E7        30.51F WCI  28
WASHINGTON +   CLOUDY    32  12  44 E7        30.52F WCI  25

$$

INZ062-063-066-070>080-084-089>092-282300-
SOUTH CENTRAL AND SOUTHEAST INDIANA

CITY           SKY/WX    TMP DP  RH WIND       PRES   REMARKS
BLOOMINGTON    CLOUDY    29   9  43 E10       30.52S WCI  20
NORTH VERNON + PTSUNNY   30   7  37 E5        30.55F WCI  25
SEYMOUR +      CLOUDY    32  12  43 E3        30.56S

$$




USA.gov is the U.S. government's official web portal to all federal, state and local government web resources and services.